Home   Weather   Shenyang   Past weeks

Flag for China Past Weather in Shenyang, Liaoning, China — Yesterday and Last 2 Weeks

34 °F


Feels Like: 34 °F
Forecast: 26 / 58 °F
Wind: 1 mph from North

Location: Shenyang / Taoxian

Current Time: Oct 24, 2016 at 12:25:12 AM

Latest Report: Oct 24, 2016 at 12:00 AM

Visibility: 4 mi

Pressure: 30.12 "Hg

Humidity: 75%

Dew Point: 27 °F

Location of ShenyangLocation

Past Weather in Shenyang — Graph


Shenyang Temperature Yesterday

Maximum temperature yesterday: 54 °F (at 1:30 PM)
Minimum temperature yesterday: 32 °F (at 4:00 AM)
Average temperature yesterday: 41 °F

High & Low Weather Summary for the Past Weeks

High77 °F (Oct 15, 12:30 PM)100% (Oct 9, 6:00 AM)30.39 "Hg (Oct 9, 6:00 AM)
Low32 °F (Oct 9, 4:00 AM)28% (Oct 11, 1:30 PM)29.92 "Hg (Oct 16, 5:00 PM)
Average51 °F65%30.15 "Hg
* Reported Oct 8 11:00 PM — Oct 23 11:00 PM, Shenyang, Weather by CustomWeather, © 2016

Note: Actual official high and low records may vary slightly from our data, if they occured in-between our weather recording intervals... More about our weather records


Shenyang Weather History for the Previous 24 Hours

Scroll right to see more
Time TempWeatherWind HumidityBarometerVisibility
11:00 PM
Sun, Oct 23
34 °FClear.1 mph75%30.12 "Hg10 mi
10:30 PM37 °FClear.1 mph60%30.12 "Hg10 mi
10:00 PM37 °FPassing clouds.3 mph60%30.15 "HgN/A
9:30 PM39 °FClear.3 mph56%30.15 "Hg10 mi
9:00 PM41 °FClear.3 mph53%30.15 "Hg10 mi
8:30 PM41 °FClear.1 mph57%30.15 "Hg10 mi
8:00 PM39 °FClear.6 mph61%30.12 "Hg10 mi
7:30 PM39 °FClear.6 mph61%30.12 "Hg10 mi
7:00 PM41 °FClear.6 mph57%30.12 "Hg10 mi
6:30 PM45 °FClear.6 mph42%30.12 "Hg10 mi
6:00 PM45 °FClear.8 mph42%30.12 "Hg10 mi
5:30 PM46 °FClear.6 mph40%30.12 "Hg10 mi
5:00 PM48 °FClear.6 mph37%30.12 "Hg10 mi
4:30 PM50 °FSunny.3 mph35%30.12 "Hg10 mi
4:00 PM52 °FSunny.8 mph32%30.12 "Hg10 mi
3:30 PM54 °FSunny.8 mph30%30.12 "Hg10 mi
3:00 PM54 °FSunny.8 mph30%30.15 "Hg10 mi
2:30 PM54 °FSunny.8 mph33%30.15 "Hg10 mi
2:00 PM54 °FPassing clouds.10 mph33%30.15 "HgN/A
1:30 PM54 °FPassing clouds.10 mph28%30.15 "HgN/A
1:00 PM52 °FSunny.10 mph32%30.15 "Hg10 mi
12:30 PM50 °FSunny.13 mph35%30.18 "Hg10 mi
12:00 PM50 °FSunny.10 mph40%30.18 "Hg10 mi
11:30 AM50 °FSunny.10 mph37%30.21 "Hg10 mi
11:00 AM46 °FSunny.10 mph40%30.24 "Hg10 mi
10:30 AM45 °FPassing clouds.8 mph49%30.24 "HgN/A
10:00 AM43 °FPassing clouds.8 mph53%30.24 "HgN/A
9:30 AM41 °FSunny.8 mph57%30.27 "Hg10 mi
9:00 AM39 °FSunny.8 mph65%30.27 "Hg10 mi
8:30 AM37 °FSunny.10 mph70%30.24 "Hg10 mi
8:00 AM36 °FSunny.8 mph70%30.24 "Hg10 mi
7:30 AM34 °FSunny.8 mph75%30.24 "Hg10 mi
7:00 AM34 °FSunny.8 mph75%30.24 "Hg10 mi
6:30 AM34 °FSunny.10 mph70%30.24 "Hg10 mi
6:00 AM34 °FClear.10 mph70%30.24 "Hg10 mi
5:30 AM34 °FClear.10 mph75%30.24 "Hg10 mi
5:00 AM34 °FClear.10 mph75%30.24 "Hg10 mi
4:30 AM32 °FClear.10 mph80%30.24 "Hg10 mi
4:00 AM32 °FClear.10 mph80%30.24 "Hg10 mi
3:30 AM34 °FClear.10 mph75%30.24 "Hg10 mi
3:00 AM34 °FClear.13 mph75%30.27 "Hg10 mi
2:30 AM34 °FClear.13 mph75%30.27 "Hg10 mi
2:00 AM34 °FClear.10 mph75%30.27 "Hg10 mi
1:30 AM34 °FClear.10 mph75%30.27 "Hg10 mi
1:00 AM34 °FClear.10 mph75%30.27 "Hg10 mi
12:30 AM34 °FClear.10 mph75%30.27 "Hg10 mi
12:00 AM36 °FClear.10 mph70%30.27 "Hg10 mi
Weather by CustomWeather, © 2016

See weather overviewHow to use our weather pages